This is the latest recevied weather packets stored in our database for station/object JA6CFI-13. If no packets are shown the sender has not sent any weather packets the latest 10 day(s).
| Time | Temp. | Humidity | Pressure | Rain* | Wind** | Luminosity | Snow |
|---|---|---|---|---|---|---|---|
| 1777957923 | 23.89° C | 45% | 1017.6 hPa | 0 mm | - | - | - |
| 1777957162 | 24.44° C | 44% | 1017.7 hPa | 0 mm | - | - | - |
| 1777956380 | 23.89° C | 45% | 1017.9 hPa | 0 mm | - | - | - |
| 1777956123 | 24.44° C | 46% | 1018 hPa | 0 mm | - | - | - |
| 1777955601 | 23.89° C | 45% | 1018 hPa | 0 mm | - | - | - |
| 1777954820 | 23.89° C | 45% | 1018.1 hPa | 0 mm | - | - | - |
| 1777954323 | 23.89° C | 44% | 1018.2 hPa | 0 mm | - | - | - |
| 1777954042 | 24.44° C | 43% | 1018.3 hPa | 0 mm | - | - | - |
| 1777953261 | 23.89° C | 46% | 1018.5 hPa | 0 mm | - | - | - |
| 1777952480 | 23.89° C | 49% | 1018.7 hPa | 0 mm | - | - | - |
| 1777951700 | 24.44° C | 36% | 1018.6 hPa | 0 mm | - | - | - |
| 1777950922 | 23.89° C | 37% | 1018.8 hPa | 0 mm | - | - | - |
| 1777950141 | 23.33° C | 38% | 1019 hPa | 0 mm | - | - | - |
| 1777949361 | 23.89° C | 37% | 1019.2 hPa | 0 mm | - | - | - |
| 1777948580 | 23.33° C | 38% | 1019.5 hPa | 0 mm | - | - | - |
| 1777947802 | 23.33° C | 37% | 1019.8 hPa | 0 mm | - | - | - |
| 1777947021 | 23.33° C | 37% | 1019.8 hPa | 0 mm | - | - | - |
| 1777946241 | 23.33° C | 37% | 1019.9 hPa | 0 mm | - | - | - |
| 1777945461 | 22.78° C | 39% | 1019.9 hPa | 0 mm | - | - | - |
| 1777944681 | 22.78° C | 40% | 1019.9 hPa | 0 mm | - | - | - |
| 1777943901 | 21.67° C | 40% | 1020 hPa | 0 mm | - | - | - |
| 1777943522 | 21.11° C | 42% | 1020.1 hPa | 0 mm | - | - | - |
| 1777943121 | 21.11° C | 43% | 1020 hPa | 0 mm | - | - | - |
| 1777942342 | 21.11° C | 52% | 1020 hPa | 0 mm | - | - | - |
| 1777941561 | 20.56° C | 54% | 1020 hPa | 0 mm | - | - | - |
* Rain latest hour (hover to see other rain measurements)
** Current wind speed in m/s (hover to see current wind gust speed)